Theta_e
309 310 310 310 310 310 310 309 308 306 304 304 303 303 303 304 304 303 303 309 302 295 297 300 301 298 299 298 294 297 297 296 297 291 292 298 297 299 300 301 301 299 298 297 299 296 291 309 308 303 312 310 309 308
309 309 309 309 309 309 309 309 307 305 304 303 303 303 303 303 304 304 300 310 309 298 297 303 303 304 303 302 299 300 296 295 298 293 290 293 296 302 300 296 307 300 303 301 301 303 311 308 315 322 321 313 313 316
309 309 308 308 308 308 309 308 306 305 304 303 303 302 303 303 303 303 301 304 303 297 299 301 302 308 312 309 311 298 300 303 301 302 297 294 292 300 297 298 299 307 309 305 307 310 311 315 317 319 320 321 320 317
308 308 307 307 308 308 308 307 306 305 304 303 302 302 303 303 303 303 301 304 304 300 292 297 306 302 309 313 312 310 308 306 302 302 297 295 293 302 299 301 301 306 303 304 308 311 312 314 316 318 320 319 316 316
306 306 306 306 307 307 308 307 305 304 304 303 302 303 303 303 304 304 304 304 305 300 292 295 302 306 310 308 309 310 308 305 297 297 296 294 300 300 302 303 301 308 305 303 301 311 311 312 316 318 316 315 314 313
304 305 305 306 307 308 308 306 305 304 303 303 302 303 303 303 303 301 298 305 305 307 295 290 302 302 304 308 306 308 310 304 300 298 298 300 303 300 295 296 305 308 311 312 309 315 316 315 316 316 315 314 312 311
304 304 306 307 307 308 307 305 304 303 303 302 302 302 302 302 301 297 298 303 304 304 295 292 295 304 307 307 310 309 307 303 301 299 297 299 300 300 296 292 302 306 308 312 313 314 310 312 310 313 312 311 309 307
304 305 305 306 307 307 305 304 303 302 302 301 301 301 302 301 301 299 304 305 304 302 299 291 293 298 307 303 300 310 302 304 300 298 300 297 298 297 292 298 302 305 307 309 311 313 311 311 310 309 309 307 303 301
303 305 305 306 307 306 304 303 302 301 301 301 301 301 301 299 298 303 307 308 306 301 293 294 291 289 305 305 303 303 305 295 302 295 298 298 296 291 296 298 301 302 304 306 308 307 307 304 303 303 302 301 298 298
303 304 305 306 306 304 303 302 301 301 301 301 300 299 296 304 304 306 303 299 298 298 297 292 297 293 298 299 301 299 300 298 292 297 301 294 293 299 300 299 300 300 305 305 301 300 300 299 299 299 299 299 298 297
303 304 306 306 305 304 302 301 300 300 301 301 297 297 303 306 304 301 295 294 294 290 294 296 297 293 301 297 297 301 298 299 292 294 294 290 291 297 298 298 300 300 300 299 301 302 302 302 299 298 297 298 297 298
303 305 305 306 304 302 301 300 299 299 299 298 297 302 302 299 296 292 292 295 293 291 297 297 297 300 300 307 300 302 297 298 291 301 295 288 295 299 298 298 299 300 300 300 301 300 299 298 298 297 297 297 298 298
302 304 305 304 303 301 301 300 299 299 300 301 297 294 292 294 288 287 286 291 293 297 299 299 297 303 302 303 300 299 293 294 301 295 290 294 299 298 298 298 299 301 302 302 301 301 300 300 300 299 298 298 297 296
302 304 303 302 301 301 300 299 299 299 297 293 291 285 288 288 290 292 292 294 300 301 300 300 299 299 301 299 300 293 297 298 291 289 291 296 300 300 302 302 301 301 302 301 298 297 296 297 297 297 297 297 296 296
304 303 302 301 301 300 300 299 298 299 296 292 292 285 289 294 296 298 298 297 300 302 300 298 299 300 299 297 298 296 292 290 293 293 298 300 302 302 302 303 302 301 300 299 299 298 296 296 296 296 296 296 296 296
302 301 300 301 300 300 299 299 299 298 296 293 292 290 295 294 295 296 297 297 302 300 300 300 295 294 294 296 293 292 291 290 296 302 304 303 302 304 304 305 303 303 303 301 301 299 297 296 296 296 297 297 296 296
300 298 301 300 299 299 299 298 296 293 292 291 291 295 294 294 294 295 297 298 301 298 294 296 291 291 298 294 292 297 295 299 302 305 305 303 302 303 305 305 304 304 302 301 300 299 298 299 298 296 295 297 297 297
297 299 300 299 300 299 299 297 294 292 288 292 290 293 295 297 296 296 298 299 298 296 297 294 299 293 292 291 293 301 303 307 306 308 307 304 305 305 305 305 305 304 304 303 302 300 299 298 296 295 297 297 296 295
299 300 298 298 299 298 293 294 295 288 291 293 294 295 296 297 300 300 300 300 301 301 300 298 294 293 295 300 301 304 304 307 306 307 307 305 304 304 304 305 305 305 305 304 302 299 298 299 298 297 297 296 295 295
299 298 298 298 296 294 291 293 299 292 290 294 295 295 296 296 298 299 298 299 298 300 295 294 294 299 301 302 307 306 308 311 307 303 302 303 304 304 304 304 303 304 304 303 302 297 299 299 299 299 298 297 296 296
295 298 297 297 295 295 293 292 292 291 294 293 297 296 296 298 296 296 296 300 296 295 295 298 299 303 304 304 310 310 308 306 304 304 301 300 302 302 303 304 305 304 303 301 299 299 298 299 299 300 299 299 299 298
298 298 297 296 292 292 291 294 292 296 294 294 295 296 294 294 295 297 301 296 295 297 300 300 301 303 303 304 307 310 310 306 306 304 300 301 300 300 301 303 302 301 301 300 300 299 300 301 301 301 300 300 299 299
297 298 295 293 288 289 287 295 290 292 289 292 295 292 293 295 298 302 296 297 298 302 303 303 303 305 304 306 308 309 309 307 306 305 304 304 303 305 305 303 303 302 301 302 302 302 302 296 298 301 301 301 300 299
294 293 289 287 288 286 292 290 293 291 292 291 291 290 293 296 299 296 291 296 302 305 303 303 302 302 303 304 306 306 308 306 304 304 305 301 302 302 303 303 305 305 304 304 303 304 302 302 298 301 301 300 301 299
286 285 288 283 290 287 287 288 290 290 288 290 290 291 294 298 291 290 289 293 301 302 303 305 305 303 303 305 307 308 309 307 305 303 305 305 305 305 305 306 305 306 306 304 303 302 302 302 302 302 301 300 300 300
282 287 286 288 289 288 288 286 288 289 290 290 291 296 297 294 290 288 292 294 297 300 302 300 301 304 303 307 307 305 304 308 307 305 306 308 306 304 303 303 302 304 307 306 304 303 302 303 302 302 301 300 292 300
282 285 291 294 292 292 291 292 293 291 289 289 293 292 292 288 289 293 295 296 297 301 301 300 303 304 306 308 309 310 309 310 309 308 309 309 308 309 307 304 304 306 307 306 306 305 303 303 303 302 302 302 302 302
288 289 286 291 290 292 289 290 289 289 291 297 295 290 288 290 290 294 295 296 298 300 301 302 303 303 306 309 308 308 309 310 310 310 309 308 309 309 309 308 309 290 307 308 307 306 306 305 305 304 303 303 303 303
288 291 291 288 290 291 291 290 291 296 299 297 292 289 291 294 297 297 297 297 299 300 301 303 306 308 308 309 309 306 307 308 305 303 301 301 302 304 307 307 306 307 307 305 287 297 307 306 306 305 304 303 304 304
289 293 290 289 288 288 294 299 297 300 300 299 298 297 295 296 299 302 300 298 297 297 301 301 301 304 304 303 304 306 307 308 308 305 303 303 304 307 308 307 307 307 308 307 306 303 288 300 296 304 303 303 303 302
294 293 291 291 290 295 297 296 298 299 298 298 298 297 295 296 300 302 300 300 301 301 301 301 303 304 304 303 304 304 303 307 308 309 309 308 307 308 309 309 308 309 308 307 305 304 304 303 302 302 302 302 301 299
292 291 290 287 289 293 293 292 294 295 296 297 296 297 295 295 293 297 301 301 300 300 294 299 301 301 305 306 307 307 292 307 307 309 309 309 309 309 308 308 308 309 307 306 305 304 303 302 301 301 300 300 300 300
292 293 292 290 290 290 293 293 293 292 294 293 293 295 295 295 292 298 301 303 302 301 301 301 303 304 305 305 306 305 297 306 294 285 287 286 288 299 307 307 308 307 306 304 303 303 302 301 300 300 300 299 298 297
Wind_Speed
14 13 12 13 14 15 13 11 10 9 8 10 11 12 13 13 13 8 9 8 6 6 20 13 18 18 15 9 6 7 7 1 2 2 4 4 4 11 9 13 13 11 9 9 11 6 2 10 20 6 8 11 17 13
14 12 12 12 13 14 13 10 9 8 8 9 11 12 13 14 13 11 10 1 3 5 14 26 29 26 24 21 12 2 3 4 2 1 2 6 4 6 4 5 16 12 9 7 5 5 11 8 3 11 14 15 17 19
13 12 12 12 13 13 11 9 8 9 8 9 9 11 13 13 13 10 9 10 4 4 13 9 16 12 15 14 12 6 3 4 1 1 1 3 6 6 4 4 10 9 18 10 7 7 11 11 4 8 14 19 22 20
13 11 12 13 13 13 11 9 9 9 8 9 10 12 14 15 14 12 9 9 6 5 6 8 11 17 13 9 15 16 1 4 2 2 3 3 4 7 6 7 9 1 11 13 6 12 10 10 10 13 23 21 22 21
14 12 13 13 13 14 11 10 9 9 9 9 11 13 14 14 14 12 11 9 9 4 6 12 23 17 12 15 18 15 12 6 1 2 3 3 3 7 9 8 7 5 7 5 3 11 3 15 10 19 17 19 20 21
16 16 14 13 12 13 10 9 9 9 9 11 12 14 14 13 12 7 4 7 6 2 3 6 13 16 13 14 13 15 11 4 2 2 2 3 2 2 4 5 5 11 10 7 7 10 18 17 15 17 18 19 21 20
16 15 13 13 13 12 9 8 8 9 10 12 12 14 15 13 8 5 5 3 9 5 2 7 7 2 6 7 5 2 5 3 3 2 4 3 3 3 3 4 7 11 14 9 6 14 16 16 16 17 18 19 20 20
15 13 13 13 12 9 8 7 7 9 11 13 14 15 16 15 14 10 13 18 8 3 3 5 7 9 7 5 3 6 3 3 3 3 1 2 2 2 5 7 10 14 13 10 7 9 15 18 18 18 16 18 20 18
14 13 13 12 11 8 5 5 7 10 12 14 16 19 11 6 5 1 4 1 7 4 4 5 5 6 1 3 1 3 5 4 3 3 3 4 3 5 4 5 10 10 12 6 9 15 20 20 19 16 17 16 16 18
13 13 13 12 8 7 6 5 8 11 15 16 9 4 4 1 3 4 3 3 3 4 4 10 12 14 10 8 2 1 3 5 4 4 3 4 2 8 4 5 6 10 1 10 18 16 18 17 17 16 15 12 12 14
14 13 11 11 10 9 8 6 6 11 13 2 3 2 4 6 5 4 3 4 5 4 6 7 13 11 11 8 5 5 4 4 3 3 3 1 2 4 7 7 8 9 19 19 18 12 10 13 14 14 14 12 12 14
13 11 15 10 11 10 7 5 5 5 3 5 6 10 4 4 5 6 5 5 8 6 5 9 6 8 4 3 5 5 5 4 3 8 4 1 1 7 9 11 11 12 17 17 16 15 14 15 14 13 11 10 12 13
13 16 10 12 12 9 7 5 4 7 10 5 4 4 3 5 6 7 8 7 4 3 7 1 4 2 3 4 5 4 5 3 3 4 2 1 3 10 11 12 12 13 14 14 15 14 14 16 17 15 14 14 14 13
13 10 13 13 11 9 7 5 4 6 4 3 4 5 6 7 7 9 9 9 3 7 9 7 4 3 6 2 4 4 4 4 4 5 4 5 8 11 14 14 16 17 14 14 15 15 15 13 12 13 11 10 10 11
10 15 13 11 10 8 7 6 5 4 4 5 5 6 9 10 8 7 8 5 5 5 7 5 5 5 5 5 4 3 3 3 3 4 5 9 12 12 12 13 14 15 14 14 15 15 16 16 13 12 11 11 11 10
15 11 7 11 13 10 8 7 6 3 4 5 8 9 9 8 8 7 10 9 6 5 7 4 4 4 6 4 3 4 2 1 2 4 8 9 6 4 15 16 15 14 15 14 13 14 14 14 13 13 12 11 11 11
13 3 10 12 11 9 9 5 5 6 6 6 7 9 10 10 9 5 8 5 4 4 7 3 5 4 4 3 5 4 2 3 8 9 10 15 9 7 10 15 15 15 14 13 13 13 13 14 14 12 12 11 11 11
2 9 13 13 10 8 6 4 5 6 8 8 11 10 9 8 7 8 9 4 6 4 6 3 5 4 4 5 5 4 5 2 9 11 11 14 14 3 5 14 15 14 14 14 13 13 13 13 14 10 12 12 12 11
6 9 12 10 3 1 4 5 4 6 9 9 10 10 9 7 8 7 8 7 5 3 2 4 6 5 3 4 7 4 4 5 8 10 13 13 12 11 6 6 14 12 12 13 13 10 10 11 10 10 10 10 9 9
13 12 9 6 5 3 5 4 3 6 7 5 7 10 9 9 8 9 7 8 5 1 5 5 7 2 3 2 8 5 3 3 9 11 10 9 9 11 8 10 9 9 11 13 11 11 10 11 9 10 9 9 9 9
7 8 8 6 6 5 4 3 5 4 7 6 8 6 6 8 7 6 7 3 4 4 7 7 8 5 2 9 3 4 4 6 4 11 11 9 9 10 7 0 6 9 9 10 10 10 10 10 10 9 9 9 10 9
2 16 3 6 4 4 6 8 5 4 5 7 10 6 5 6 7 6 3 5 5 9 9 8 6 4 5 4 5 7 6 10 11 11 13 15 11 11 11 11 8 7 6 8 9 9 9 9 9 10 8 9 9 9
8 5 2 4 6 6 7 7 6 6 6 4 5 4 6 4 3 5 4 3 5 7 8 9 8 4 7 2 5 3 1 11 12 12 13 10 7 5 5 7 7 7 9 9 9 9 9 10 9 9 10 8 8 10
1 4 5 5 6 5 5 5 5 6 7 10 10 12 4 3 4 2 2 5 6 4 7 8 4 4 6 6 2 2 3 6 9 9 11 11 8 10 12 10 8 8 8 9 8 10 10 9 10 9 10 9 9 8
4 6 5 7 5 6 6 6 11 9 12 11 13 9 3 5 3 3 2 2 5 2 3 2 5 5 4 3 6 6 10 7 7 12 8 11 12 12 12 10 8 10 9 9 9 12 10 11 10 10 11 11 10 11
6 8 7 7 7 8 6 4 6 10 11 12 5 1 4 4 5 4 3 1 2 4 4 5 5 3 3 5 6 6 3 8 8 12 12 13 12 10 9 11 10 9 9 10 10 12 11 11 10 10 10 9 6 9
5 7 7 9 6 4 5 6 4 4 6 4 2 2 4 5 3 3 2 1 2 2 3 3 5 5 3 4 4 11 10 8 9 7 8 10 11 10 9 10 11 9 8 10 9 11 9 10 7 5 11 9 11 9
6 5 4 7 7 7 9 7 3 4 3 2 3 0 3 5 3 2 1 0 2 4 4 4 6 5 7 7 9 5 6 9 6 6 5 5 7 9 8 8 9 9 6 7 9 8 7 8 10 10 10 9 9 7
6 6 7 8 9 5 7 6 5 2 3 3 3 2 2 2 1 3 2 2 1 2 3 2 3 5 5 6 6 7 4 7 8 10 10 8 7 6 8 9 9 9 9 8 7 4 8 9 8 7 9 7 8 7
10 8 6 5 9 7 2 2 2 3 3 4 3 2 4 2 2 5 6 1 2 3 3 2 9 7 5 5 4 5 3 5 6 5 5 5 6 9 5 5 9 9 8 8 8 7 8 9 7 7 8 7 7 6
2 6 6 6 3 4 5 6 6 6 4 3 2 2 5 2 2 4 5 5 1 4 5 6 2 3 6 7 3 4 2 2 6 5 6 7 6 2 4 7 7 7 6 9 8 8 8 8 6 7 9 10 8 7
5 4 2 2 2 2 1 2 3 3 3 2 3 4 4 2 3 2 3 2 6 7 3 3 5 5 6 5 3 5 1 5 7 6 10 2 3 6 8 6 8 8 8 8 8 7 9 10 7 2 5 7 9 7
7 4 3 2 3 3 4 3 3 4 4 4 2 2 2 2 3 3 3 3 2 3 5 5 4 4 4 5 5 3 2 6 7 7 9 7 3 5 3 5 6 8 10 10 10 8 6 10 9 10 9 9 8 9
Wind_Direction
295 295 301 306 307 303 295 256 255 269 283 301 312 316 320 321 326 322 303 287 250 274 291 280 325 311 304 288 283 338 322 178 274 324 311 309 282 275 311 250 224 210 214 221 258 270 148 202 277 266 119 120 105 136
294 293 297 301 307 305 297 259 250 266 274 294 302 310 317 316 315 321 281 117 227 259 276 292 282 271 262 263 282 238 277 308 313 325 328 299 314 300 277 304 261 246 212 225 311 73 135 280 242 110 149 152 182 142
295 298 300 304 304 298 289 248 246 254 265 286 292 300 301 304 303 303 286 299 271 257 278 283 305 212 227 218 218 229 212 205 170 86 294 268 276 319 304 90 330 331 350 243 159 159 132 112 104 118 117 102 112 121
287 290 298 302 303 303 288 234 244 251 261 278 290 296 297 299 300 300 281 283 285 280 288 303 320 319 301 220 193 212 183 113 343 249 253 252 280 309 312 314 309 246 345 330 121 111 128 126 122 115 105 116 126 133
289 290 298 301 302 300 283 226 237 248 266 273 285 289 293 302 306 296 273 256 247 255 299 300 301 284 272 233 222 201 218 220 166 253 226 235 250 279 272 273 254 193 165 276 353 207 121 121 119 111 120 121 123 122
288 292 293 295 289 289 253 225 235 244 259 279 288 298 303 308 315 298 311 51 359 219 286 295 324 286 269 224 220 199 203 157 198 246 244 259 263 284 295 292 291 327 167 250 321 357 104 112 111 117 118 119 119 120
287 289 289 292 291 288 220 240 253 263 275 282 291 295 297 300 289 255 322 326 320 315 257 276 281 234 260 211 171 128 116 153 184 231 222 226 210 205 262 252 334 327 333 326 11 96 105 118 116 110 107 107 108 110
286 284 286 289 291 249 215 241 252 271 280 291 295 293 294 294 274 254 242 242 229 255 251 269 276 277 220 184 180 183 175 141 206 241 235 217 152 219 255 269 276 278 289 284 176 140 118 106 107 111 112 114 115 112
281 278 285 286 282 206 216 226 264 277 288 294 296 289 281 225 232 294 58 52 185 234 280 257 276 289 284 129 28 214 178 196 166 227 223 163 181 218 263 288 283 294 298 179 126 111 113 115 119 117 123 120 120 118
279 278 281 286 222 195 199 234 267 289 293 297 279 224 227 117 226 220 192 182 176 201 236 261 276 270 289 299 328 265 214 189 207 203 145 213 246 255 88 41 359 321 224 98 114 125 124 127 128 132 119 111 114 114
279 279 277 279 190 188 196 229 279 309 281 200 273 312 295 151 244 230 220 233 164 234 220 243 236 258 259 257 292 205 211 221 231 146 233 266 251 117 135 83 48 49 79 67 68 76 101 116 120 116 117 114 109 105
279 278 296 204 178 183 203 218 285 277 35 319 299 284 280 251 227 251 219 193 202 246 168 240 270 210 239 165 227 251 214 225 248 164 200 198 85 132 142 122 84 72 73 74 76 83 85 85 89 99 111 128 121 119
279 293 208 171 174 190 194 209 266 301 291 256 212 240 229 247 234 233 221 213 215 303 328 1 338 333 267 222 256 231 250 238 187 179 173 135 123 120 125 132 123 122 121 124 124 135 151 164 165 153 119 108 121 126
280 218 168 167 182 184 199 213 257 278 259 245 231 243 237 217 227 228 249 287 324 310 312 355 338 302 279 223 244 246 270 216 233 201 149 139 142 157 154 156 152 161 175 162 125 114 115 111 109 104 121 129 125 115
228 163 161 184 181 187 205 213 248 245 263 249 237 241 224 249 262 288 285 269 280 285 313 327 292 232 282 262 256 253 247 258 303 33 127 152 152 178 173 158 144 139 137 136 144 142 138 136 132 123 115 117 118 133
149 133 187 177 186 191 205 221 225 220 247 246 235 251 280 286 287 321 320 328 329 337 312 271 258 268 241 229 251 243 248 254 48 95 114 133 152 262 153 151 150 147 138 138 131 132 133 132 132 133 131 134 138 128
149 187 167 177 173 188 206 242 175 227 245 234 238 237 254 276 282 268 286 288 274 290 291 293 253 245 291 249 231 207 228 127 119 136 144 142 161 240 157 134 133 132 132 132 136 139 137 134 134 134 131 127 122 119
168 146 152 156 178 182 186 209 235 235 241 251 264 265 268 277 279 272 252 266 259 268 295 265 302 280 284 302 349 14 17 108 128 139 141 147 147 218 108 137 134 137 135 139 140 131 133 140 139 132 130 131 124 123
156 151 158 156 178 286 207 224 237 259 240 253 251 259 279 259 249 252 265 266 259 261 304 264 254 264 307 337 332 19 43 300 108 128 137 133 128 122 115 127 119 130 140 136 135 142 145 156 131 144 140 144 138 139
117 135 159 170 196 237 236 204 207 272 280 292 257 247 244 240 249 238 258 247 233 184 231 230 250 313 20 295 290 322 87 198 125 122 114 122 131 137 153 123 119 150 142 143 144 147 156 134 147 146 158 148 143 141
182 161 172 211 198 231 258 253 209 241 294 279 281 270 267 264 255 225 243 254 229 211 236 246 274 145 226 236 292 332 6 39 325 137 137 127 128 114 91 251 237 152 151 152 153 157 164 146 153 149 151 163 145 157
129 173 192 192 228 229 246 226 242 194 237 256 271 238 249 248 225 231 180 225 234 230 235 254 264 314 313 352 334 5 31 159 214 132 130 136 143 146 173 186 158 159 159 143 144 170 143 145 153 146 175 130 145 145
184 179 145 236 227 219 253 255 228 233 242 276 279 230 231 206 185 156 216 239 266 243 236 243 251 271 293 35 2 44 306 140 138 139 145 138 119 116 113 151 169 168 157 157 160 178 145 136 140 154 129 154 131 124
38 204 197 206 232 243 230 210 229 241 251 251 253 265 240 142 153 205 263 280 269 270 212 215 232 260 260 231 124 345 66 100 108 122 125 123 125 148 181 196 204 167 173 156 166 129 134 152 146 148 154 155 164 162
154 227 199 220 229 248 230 225 213 230 242 248 250 253 154 172 167 215 242 281 310 67 78 281 247 248 243 149 153 193 145 121 144 149 169 166 167 177 199 198 177 173 174 154 156 146 159 148 177 173 162 162 177 171
227 218 207 213 197 219 221 243 227 234 245 245 238 248 152 195 203 210 187 238 340 332 45 27 358 275 204 190 158 129 155 161 159 157 184 198 181 175 172 182 178 172 172 163 162 158 161 167 170 163 160 161 159 168
239 243 218 232 252 271 282 283 276 243 265 264 250 239 216 224 162 95 90 13 291 311 2 314 309 317 255 204 163 157 192 189 173 165 177 177 189 182 167 181 179 162 155 152 151 159 170 170 149 163 152 192 181 189
247 268 251 248 241 245 251 262 269 265 269 329 293 306 7 344 71 59 84 302 315 320 317 309 299 286 271 224 147 166 147 137 197 171 167 159 172 178 184 162 133 106 137 159 168 157 156 174 173 186 177 162 173 182
227 244 268 260 246 239 252 236 224 308 16 24 37 351 39 54 193 150 168 203 263 307 256 281 276 286 189 160 129 132 152 154 168 177 192 168 157 155 139 116 144 142 124 100 65 135 179 144 168 160 146 179 208 173
229 219 233 252 262 253 219 350 356 15 49 76 84 168 90 108 117 124 103 96 335 323 3 288 261 232 133 126 121 125 142 158 172 186 177 162 158 144 144 160 168 159 151 147 122 121 111 129 135 150 167 148 141 154
244 192 224 236 269 279 351 359 297 278 280 97 243 191 117 136 112 71 128 140 177 289 284 278 355 45 92 57 38 158 129 158 130 115 162 202 207 185 166 175 146 132 158 146 149 167 169 163 172 173 167 169 158 151
210 210 139 237 271 288 72 266 220 190 216 154 177 131 133 157 110 102 350 314 187 201 235 347 65 37 49 64 55 95 176 41 357 151 160 163 209 161 178 189 152 145 142 143 170 162 113 78 44 292 206 182 144 178
203 165 173 200 214 201 200 230 149 139 186 176 138 116 98 138 116 106 84 13 29 24 48 61 58 42 31 17 31 41 118 62 60 32 38 24 316 158 175 159 157 155 151 128 124 123 128 145 167 221 174 156 157 129